| time (UTC) | temp C | wind direction | speed KPH | gust KPH | rain 1hr cm | rain 24hr cm | rain mn cm | humidity % | barometer mb |
| 20260509044514 | 13 | 211 | 0.0 | 0.0 | 0.00 | 0.00 | 0.00 | 69 | 1017.3 |
| 20260509043007 | 13 | 211 | 0.0 | 0.0 | 0.00 | 0.00 | 0.00 | 69 | 1017.1 |
| 20260509041506 | 13 | 233 | 0.0 | 0.0 | 0.00 | 0.00 | 0.00 | 67 | 1017.0 |
| 20260509040004 | 13 | 207 | 0.0 | 6.4 | 0.00 | 0.00 | 0.00 | 66 | 1016.8 |
| 20260509034502 | 13 | 192 | 0.0 | 0.0 | 0.00 | 0.00 | 0.00 | 66 | 1016.6 |
| 20260509033001 | 13 | 223 | 0.0 | 0.0 | 0.00 | 0.00 | 0.00 | 66 | 1016.6 |
| 20260509031600 | 14 | 219 | 0.0 | 6.4 | 0.00 | 0.00 | 0.00 | 65 | 1016.4 |
| 20260509030110 | 14 | 217 | 0.0 | 1.6 | 0.00 | 0.00 | 0.00 | 64 | 1016.3 |
| 20260509024558 | 15 | 199 | 0.0 | 6.4 | 0.00 | 0.00 | 0.00 | 64 | 1016.2 |
| 20260509023056 | 15 | 215 | 0.0 | 4.8 | 0.00 | 0.00 | 0.00 | 63 | 1016.1 |
| 20260509021556 | 15 | 213 | 0.0 | 3.2 | 0.00 | 0.00 | 0.00 | 63 | 1016.0 |
| 20260509020053 | 14 | 169 | 0.0 | 1.6 | 0.00 | 0.00 | 0.00 | 65 | 1015.9 |
| 20260509014552 | 14 | 218 | 0.0 | 9.7 | 0.00 | 0.00 | 0.00 | 64 | 1015.8 |
| 20260509013107 | 15 | 187 | 3.2 | 14.5 | 0.00 | 0.00 | 0.00 | 64 | 1015.7 |
| 20260509011559 | 15 | 248 | 3.2 | 14.5 | 0.00 | 0.00 | 0.00 | 64 | 1015.7 |
| 20260509010049 | 15 | 195 | 0.0 | 12.9 | 0.00 | 0.00 | 0.00 | 66 | 1015.7 |
| 20260509004548 | 15 | 200 | 1.6 | 16.1 | 0.00 | 0.00 | 0.00 | 65 | 1015.7 |
| 20260509003108 | 15 | 210 | 3.2 | 16.1 | 0.00 | 0.00 | 0.00 | 63 | 1015.6 |
| 20260509001546 | 16 | 229 | 4.8 | 19.3 | 0.00 | 0.00 | 0.00 | 63 | 1015.4 |
| 20260509000056 | 16 | 184 | 0.0 | 11.3 | 0.00 | 0.00 | 0.00 | 63 | 1015.4 |
| 20260508234544 | 15 | 254 | 4.8 | 16.1 | 0.00 | 0.00 | 0.00 | 61 | 1015.3 |
| 20260508233042 | 16 | 173 | 3.2 | 19.3 | 0.00 | 0.00 | 0.00 | 59 | 1015.3 |
| 20260508231547 | 16 | 147 | 1.6 | 17.7 | 0.00 | 0.00 | 0.00 | 62 | 1015.3 |
| 20260508230042 | 16 | 215 | 3.2 | 12.9 | 0.00 | 0.00 | 0.00 | 61 | 1015.3 |
| 20260508224544 | 16 | 190 | 0.0 | 17.7 | 0.00 | 0.00 | 0.00 | 61 | 1015.2 |
| 20260508223042 | 17 | 165 | 1.6 | 19.3 | 0.00 | 0.00 | 0.00 | 61 | 1015.2 |
| 20260508221538 | 17 | 240 | 6.4 | 19.3 | 0.00 | 0.00 | 0.00 | 61 | 1015.2 |
| 20260508220035 | 16 | 194 | 4.8 | 22.5 | 0.00 | 0.00 | 0.00 | 64 | 1015.2 |
| 20260508214533 | 15 | 223 | 3.2 | 19.3 | 0.00 | 0.00 | 0.00 | 67 | 1015.2 |
| 20260508213033 | 16 | 211 | 3.2 | 11.3 | 0.00 | 0.00 | 0.00 | 67 | 1015.1 |
| 20260508211529 | 15 | 206 | 0.0 | 17.7 | 0.00 | 0.00 | 0.00 | 71 | 1014.9 |
| 20260508210028 | 15 | 190 | 4.8 | 14.5 | 0.00 | 0.00 | 0.00 | 73 | 1014.8 |
| 20260508204523 | 15 | 215 | 3.2 | 12.9 | 0.00 | 0.00 | 0.00 | 74 | 1014.8 |
| 20260508203024 | 14 | 155 | 0.0 | 8.0 | 0.00 | 0.00 | 0.00 | 76 | 1014.5 |
| 20260508201520 | 13 | 195 | 8.0 | 17.7 | 0.00 | 0.00 | 0.00 | 76 | 1014.4 |
| 20260508200023 | 13 | 209 | 6.4 | 22.5 | 0.00 | 0.00 | 0.00 | 77 | 1014.3 |
| 20260508194517 | 15 | 222 | 0.0 | 9.7 | 0.00 | 0.00 | 0.00 | 75 | 1014.2 |
| 20260508193018 | 14 | 242 | 1.6 | 24.1 | 0.00 | 0.00 | 0.00 | 76 | 1014.1 |
| 20260508191514 | 14 | 207 | 4.8 | 25.7 | 0.00 | 0.00 | 0.00 | 77 | 1014.0 |
| 20260508190013 | 14 | 231 | 0.0 | 16.1 | 0.00 | 0.00 | 0.00 | 78 | 1013.7 |
| 20260508184511 | 15 | 272 | 1.6 | 14.5 | 0.00 | 0.00 | 0.00 | 78 | 1013.6 |
| 20260508183011 | 14 | 180 | 6.4 | 22.5 | 0.00 | 0.00 | 0.00 | 78 | 1013.3 |
| 20260508181508 | 15 | 196 | 3.2 | 20.9 | 0.00 | 0.00 | 0.00 | 77 | 1013.3 |
| 20260508180006 | 15 | 296 | 0.0 | 16.1 | 0.00 | 0.00 | 0.00 | 77 | 1013.2 |
| 20260508174510 | 14 | 227 | 0.0 | 14.5 | 0.00 | 0.00 | 0.00 | 79 | 1013.1 |
| 20260508173005 | 15 | 223 | 0.0 | 8.0 | 0.00 | 0.00 | 0.00 | 80 | 1013.0 |
| 20260508171500 | 14 | 221 | 0.0 | 9.7 | 0.00 | 0.00 | 0.00 | 81 | 1012.8 |
| 20260508170100 | 14 | 185 | 0.0 | 8.0 | 0.00 | 0.00 | 0.00 | 81 | 1012.8 |
| 20260508170002 | 14 | 210 | 0.0 | 8.0 | 0.00 | 0.00 | 0.00 | 81 | 1012.8 |
| 20260508164605 | 14 | 309 | 0.0 | 14.5 | 0.00 | 0.00 | 0.00 | 82 | 1012.7 |
| 20260508163117 | 14 | 253 | 0.0 | 1.6 | 0.00 | 0.00 | 0.00 | 82 | 1012.8 |
| 20260508161558 | 14 | 160 | 0.0 | 6.4 | 0.00 | 0.00 | 0.00 | 83 | 1012.7 |
| 20260508160055 | 13 | 220 | 0.0 | 8.0 | 0.00 | 0.00 | 0.00 | 83 | 1012.5 |
| 20260508154555 | 13 | 206 | 0.0 | 6.4 | 0.00 | 0.00 | 0.00 | 83 | 1012.4 |
| 20260508153055 | 13 | 188 | 0.0 | 1.6 | 0.00 | 0.00 | 0.00 | 82 | 1012.2 |
| 20260508151551 | 13 | 177 | 0.0 | 4.8 | 0.00 | 0.00 | 0.00 | 82 | 1012.1 |
| 20260508150049 | 13 | 162 | 0.0 | 1.6 | 0.00 | 0.00 | 0.00 | 81 | 1011.9 |
| 20260508144547 | 13 | 134 | 0.0 | 0.0 | 0.00 | 0.00 | 0.00 | 81 | 1011.7 |
| 20260508143049 | 13 | 133 | 0.0 | 1.6 | 0.00 | 0.00 | 0.00 | 81 | 1011.6 |
| 20260508141545 | 13 | 134 | 0.0 | 0.0 | 0.00 | 0.00 | 0.00 | 82 | 1011.6 |
| 20260508140045 | 13 | 134 | 0.0 | 0.0 | 0.00 | 0.00 | 0.00 | 83 | 1011.5 |
| 20260508134545 | 13 | 104 | 0.0 | 0.0 | 0.00 | 0.00 | 0.00 | 83 | 1011.4 |
| 20260508133047 | 13 | 104 | 0.0 | 0.0 | 0.00 | 0.00 | 0.00 | 82 | 1011.4 |
| 20260508131551 | 13 | 53 | 0.0 | 0.0 | 0.00 | 0.00 | 0.00 | 81 | 1011.2 |
| 20260508130052 | 13 | 90 | 0.0 | 0.0 | 0.00 | 0.00 | 0.00 | 81 | 1011.2 |
| 20260508124538 | 13 | 86 | 0.0 | 0.0 | 0.00 | 0.00 | 0.00 | 80 | 1011.0 |
| 20260508123040 | 13 | 86 | 0.0 | 0.0 | 0.00 | 0.00 | 0.00 | 80 | 1011.0 |
| 20260508121537 | 13 | 86 | 0.0 | 0.0 | 0.00 | 0.00 | 0.00 | 80 | 1011.0 |
| 20260508120037 | 13 | 86 | 0.0 | 0.0 | 0.00 | 0.00 | 0.00 | 81 | 1011.1 |
| 20260508114536 | 13 | 85 | 0.0 | 0.0 | 0.00 | 0.00 | 0.00 | 81 | 1011.2 |
| 20260508113042 | 13 | 85 | 0.0 | 0.0 | 0.00 | 0.00 | 0.00 | 81 | 1011.1 |
| 20260508111536 | 13 | 85 | 0.0 | 0.0 | 0.00 | 0.00 | 0.00 | 80 | 1011.1 |
| 20260508110047 | 13 | 85 | 0.0 | 0.0 | 0.00 | 0.00 | 0.00 | 80 | 1011.0 |
| 20260508104530 | 13 | 85 | 0.0 | 0.0 | 0.00 | 0.00 | 0.00 | 79 | 1010.9 |
| 20260508103036 | 13 | 85 | 0.0 | 0.0 | 0.00 | 0.00 | 0.00 | 78 | 1010.7 |
| 20260508101535 | 13 | 85 | 0.0 | 0.0 | 0.00 | 0.00 | 0.00 | 78 | 1010.6 |
| 20260508100027 | 13 | 85 | 0.0 | 0.0 | 0.00 | 0.00 | 0.00 | 77 | 1010.6 |
| 20260508094524 | 13 | 84 | 0.0 | 0.0 | 0.00 | 0.00 | 0.00 | 77 | 1010.7 |
| 20260508093039 | 14 | 82 | 0.0 | 0.0 | 0.00 | 0.00 | 0.00 | 76 | 1010.8 |
| 20260508091524 | 14 | 82 | 0.0 | 0.0 | 0.00 | 0.00 | 0.00 | 75 | 1010.8 |
| 20260508090029 | 14 | 82 | 0.0 | 0.0 | 0.00 | 0.00 | 0.00 | 76 | 1010.9 |
| 20260508084519 | 14 | 82 | 0.0 | 0.0 | 0.00 | 0.00 | 0.00 | 75 | 1011.0 |
| 20260508083024 | 14 | 113 | 0.0 | 0.0 | 0.00 | 0.00 | 0.00 | 75 | 1011.1 |
| 20260508081517 | 14 | 113 | 0.0 | 0.0 | 0.00 | 0.00 | 0.00 | 75 | 1011.1 |
| 20260508080025 | 14 | 113 | 0.0 | 0.0 | 0.00 | 0.00 | 0.00 | 76 | 1011.2 |
| 20260508074517 | 14 | 113 | 0.0 | 0.0 | 0.00 | 0.00 | 0.00 | 75 | 1011.3 |
| 20260508073017 | 14 | 107 | 0.0 | 0.0 | 0.00 | 0.00 | 0.00 | 76 | 1011.1 |
| 20260508071513 | 14 | 142 | 0.0 | 0.0 | 0.00 | 0.00 | 0.00 | 76 | 1011.2 |
| 20260508070011 | 14 | 132 | 0.0 | 0.0 | 0.00 | 0.00 | 0.00 | 77 | 1011.2 |
| 20260508064513 | 15 | 132 | 0.0 | 0.0 | 0.00 | 0.00 | 0.00 | 77 | 1011.2 |
| 20260508063010 | 15 | 131 | 0.0 | 0.0 | 0.00 | 0.00 | 0.00 | 77 | 1011.1 |
| 20260508061510 | 15 | 125 | 0.0 | 0.0 | 0.00 | 0.00 | 0.00 | 77 | 1011.1 |
| 20260508060009 | 15 | 140 | 0.0 | 0.0 | 0.00 | 0.00 | 0.00 | 77 | 1011.2 |
| 20260508054509 | 15 | 103 | 0.0 | 4.8 | 0.00 | 0.00 | 0.00 | 77 | 1011.2 |
| 20260508053009 | 15 | 112 | 0.0 | 1.6 | 0.00 | 0.00 | 0.00 | 76 | 1011.4 |
| 20260508051507 | 15 | 79 | 0.0 | 3.2 | 0.00 | 0.00 | 0.00 | 75 | 1011.4 |
| 20260508050007 | 15 | 86 | 0.0 | 11.3 | 0.00 | 0.00 | 0.00 | 75 | 1011.3 |